• MPC Preparation (Info)

  • MPEC 2023-F128 : 2023 FR3

    The following Minor Planet Electronic Circular may be linked-to from your own Web pages, but must not otherwise be redistributed electronically.

    A form allowing access to any MPEC is at the bottom of this page.


    Read MPEC 2023-F127 Read MPEC 2023-F129


    M.P.E.C. 2023-F128                               Issued 2023 March 24, 12:58 UT
    
         The Minor Planet Electronic Circulars contain information on unusual
             minor planets, routine data on comets and natural satellites,
             and occasional editorial announcements.  They are published
        on behalf of Division F of the International Astronomical Union by the
              Minor Planet Center, Smithsonian Astrophysical Observatory,
                              Cambridge, MA 02138, U.S.A.
    			  
                 Prepared using the Tamkin Foundation Computer Network
    
                                  MPC@CFA.HARVARD.EDU
                URL https://www.minorplanetcenter.net/    ISSN 1523-6714
    
                                    2023 FR3                                 
    
    
    Observations:
         K23F03R* C2023 03 23.03910906 57 30.425+03 06 07.16         16.95oVEF128W68
         K23F03R  C2023 03 23.04277706 57 38.542+03 05 14.32         16.92oVEF128W68
         K23F03R  C2023 03 23.04831806 57 50.851+03 03 54.14         17.09oVEF128W68
         K23F03R  C2023 03 23.06409206 58 25.721+03 00 06.37         17.07oVEF128W68
         K23F03R hC2023 03 23.87277007 28 16.366-00 14 18.49         16.5 GVEF128J95
         K23F03R hC2023 03 23.87338207 28 17.645-00 14 26.59         16.7 GVEF128J95
         K23F03R hC2023 03 23.87404407 28 19.049-00 14 35.74         17.0 GVEF128J95
         K23F03R hC2023 03 23.88131007 28 34.351-00 16 15.78         16.6 GVEF128J95
         K23F03R hC2023 03 23.88380707 28 39.605-00 16 50.12         16.8 GVEF128J95
         K23F03R KC2023 03 23.90999007 29 32.74 -00 22 38.5          16.3 GXEF128595
         K23F03R KC2023 03 23.91552107 29 44.37 -00 23 54.2          16.7 GXEF128595
         K23F03R KC2023 03 23.92105407 29 56.03 -00 25 10.8          16.3 GXEF128595
         K23F03R hC2023 03 23.92683907 30 10.092-00 26 40.31         16.8 GVEF128J95
         K23F03R hC2023 03 23.93020507 30 17.155-00 27 26.10         16.6 GVEF128J95
         K23F03R KB2023 03 23.93807 07 30 38.525-00 26 02.44         16.7 GXEF128X93
         K23F03R KB2023 03 23.93975 07 30 42.084-00 26 25.44         16.5 GXEF128X93
         K23F03R KB2023 03 24.00437007 32 55.014-00 41 14.31         16.8 GXEF128Y01
         K23F03R KB2023 03 24.01114707 33 09.011-00 42 46.53         16.6 GXEF128Y01
         K23F03R KB2023 03 24.01771307 33 22.509-00 44 15.62         16.9 GXEF128Y01
         K23F03R KB2023 03 24.03706807 34 08.808-00 51 07.24         16.9 GXEF128W34
         K23F03R KB2023 03 24.04409707 34 23.258-00 52 42.31         16.6 GXEF128W34
         K23F03R KB2023 03 24.05115307 34 37.762-00 54 17.75         16.6 GXEF128W34
         K23F03R KC2023 03 24.08537 07 35 47.51 -01 01 58.3          16.6 GVEF128W46
         K23F03R KC2023 03 24.08865 07 35 54.18 -01 02 42.5          16.9 GVEF128W46
         K23F03R KC2023 03 24.09510 07 36 07.40 -01 04 09.7          16.1 GVEF128W46
         K23F03R  C2023 03 24.15285 07 38 09.50 -01 17 06.2          17.3 VtEF128V27
         K23F03R  C2023 03 24.16168 07 38 27.45 -01 19 04.4          17.3 VtEF128V27
         K23F03R  C2023 03 24.17014 07 38 44.66 -01 20 56.5          17.2 VtEF128V27
         K23F03R KC2023 03 24.17937 07 38 59.67 -01 22 39.8          16.4 VqEF128W42
         K23F03R  C2023 03 24.18258 07 39 09.98 -01 23 43.3          16.5 VtEF128V27
         K23F03R KC2023 03 24.18310 07 39 07.29 -01 23 29.4          16.5 VqEF128W42
         K23F03R KC2023 03 24.18634 07 39 13.94 -01 24 12.1          16.3 VqEF128W42
         K23F03R KC2023 03 24.19558107 39 36.34 -01 26 33.8          17.3 GXEF128858
         K23F03R KC2023 03 24.20207807 39 49.54 -01 28 00.2          17.0 GXEF128858
         K23F03R KC2023 03 24.20860907 40 02.80 -01 29 26.8          16.6 GXEF128858
    
    Observer details:
    595 Farra d'Isonzo.  Observers G. Panterotto, E. Pettarin.  Measurer E.
        Pettarin.  0.61-m f/4.5 reflector + CCD.
    858 Tebbutt Observatory, Edgewood.  Observer F. B. Zoltowski.  0.16-m f/7
        Refractor + CCD.
    J95 Great Shefford.  Observer P. Birtwhistle.  0.41-m f/6.3 Schmidt-Cassegrain
        + CCD.
    V27 North Mesa Observatory, Los Alamos.  Observer B. K. Kendrick.  0.25-m f/6
        reflector + CCD.
    W34 Squirrel Valley Observatory, Columbus.  Observer R. L. Flynn.  0.36-m
        f/1.9 Aplanatic Schmidt Cassegrain + CMO.
    W42 Mind's Eye Observatory, Vero Beach.  Observer J. T. Grage.  0.3m f/10
        Schmidt-Cassegrain + CCD + f/3 Focal Reducer.
    W46 Foxfire Village.  Observer J. Haidet.  .36-m f/6.3 Ritchey-Chretien + CCD.
    W68 ATLAS Chile, Rio Hurtado.  Observers L. Denneau, R. Siverd, J. Tonry, H.
        Weiland.  Measurers L. Denneau, N. Erasmus, A. Fitzsimmons, A. Lawrence,
        J. Robinson, R. Siverd, J. Tonry, H. Weiland.  0.5-m Reflector + CCD.
    X93 Munhoz Observatory.  Observer A. Brossel.  0.30-m f/4.0 reflector + CMO.
    Y01 SONEAR 2 Observatory, Belo Horizonte.  Observers C. Jacques, A. Caetano,
        E. Pimentel.  Measurer C. Jacques.  0.28-m f/2.2 astrograph + CMO.
    
    Orbital elements:
    2023 FR3                                            PHA, Earth MOID = 0.0114 AU
    Epoch 2023 Feb. 25.0 TT = JDT 2460000.5                 Veres                   
    M   3.88347              (2000.0)            P               Q                  
    n   0.28433562     Peri.  128.76336     -0.51553500     -0.85665403             
    a   2.2904204      Node   352.19894     +0.73583298     -0.43113883             
    e   0.6409145      Incl.    8.11973     +0.43905977     -0.28330758             
    P   3.47           H   20.89          G   0.15           U   8                  
    Residuals in seconds of arc
    230323 W68  0.1+  0.2-    230323 J95  0.1+  0.3-    230324 W46  1.9-  0.2+
    230323 W68  0.0   0.0     230323 J95  0.2-  0.0     230324 V27  0.8+  0.1-
    230323 W68  0.5+  0.1-    230323 X93  0.5-  0.3+    230324 V27  0.4+  0.4-
    230323 W68  0.5-  0.2+    230323 X93  0.8+  0.2+    230324 V27  0.3+  0.4+
    230323 J95  0.0   0.1-    230324 Y01  0.4+  0.2-    230324 W42  0.1-  0.1-
    230323 J95  0.1-  0.2+    230324 Y01  0.8+  0.3-    230324 V27  0.6+  0.6-
    230323 J95  0.1+  0.1+    230324 Y01  0.2+  0.3-    230324 W42  0.2-  0.1-
    230323 J95  0.2+  0.0     230324 W34  0.2+  0.2-    230324 W42  0.1+  0.3+
    230323 J95  0.2+  0.0     230324 W34  0.1+  0.1-    230324 858  0.3+  0.0
    230323 595  0.2+  0.3+    230324 W34  0.1+  0.1-    230324 858  0.2+  0.1-
    230323 595  0.2-  0.3+    230324 W46  1.0-  0.7+    230324 858  0.0   0.0
    230323 595  0.2-  0.5-    230324 W46  1.9-  0.7+
    
    Ephemeris:
    2023 FR3                 a,e,i = 2.29, 0.64, 8                   q = 0.8225
    Date    TT    R. A. (2000) Decl.     Delta      r    Elong.  Phase     V
    2023 02 22    00 55 32.9 +20 53 59   0.2739  0.8381    49.7   115.9    22.2
    ...
    2023 03 09    01 56 11.9 +22 40 24   0.1349  0.9078    48.0   125.7    21.6
    ...
    2023 03 17    03 38 40.8 +19 44 05   0.07169 0.9623    61.2   115.0    19.6
    ...
    2023 03 23    06 56 02.9 +03 14 11   0.05171 1.0088   102.3    74.8    17.1
    2023 03 24    07 32 48.4 -00 40 57   0.05354 1.0169   110.7    66.5    16.9
    2023 03 25    08 06 19.2 -04 13 52   0.05686 1.0251   118.2    59.0    16.8
    ...
    2023 03 31    10 10 01.9 -15 28 16   0.09569 1.0761   142.4    34.5    17.4
    ...
    2023 04 08    11 10 28.7 -18 55 33   0.1662  1.1475   149.7    26.1    18.5
    ...
    2023 04 23    11 52 13.7 -19 44 53   0.3188  1.2876   148.4    24.2    20.1
    
    M. P. C. Staff               (C) Copyright 2023 MPC           M.P.E.C. 2023-F128
    


    Read MPEC 2023-F127 Read MPEC 2023-F129


    MPEC number:

    Enter an MPEC number in one of the following forms:

    • 1997-B01 (the full form)
    • J97B01 (the packed version of the full form)
    • B01 (the abbreviated form)